STARLINK-1577, 46063

Orbit data source: Space-Track

STARLINK-1577, 46063 is a payload satellite owned by SpaceX/Seattle (US) in LEO that was launched on Fri, 07 Aug 2020 UTC via an FALCON 9 launch vehicle from the Air Force Eastern Test Range (AFETR). Payload-class satellites include a variety of spacecraft equipped with specific instruments for various scientific and technological missions. These include communications satellites like Starlink; space stations such as the ISS; scientific satellites like the Hubble; Earth observation satellites from companies like Planet Labs, Umbra, and HawkEye 360; GPS; miniature CubeSats for education and research; and military/defense satellites.

Loading next visibility...
Identifier
46063, 2020-055AN
Orbit
LEO
Last TLE update
13 hours ago
Origin
Manufacturer
SpaceX/Seattle
Mission
Operational Commercial Communications
Bus & Motor
STARLINK, Unknown motor
Mass
260 kg wet, ~248 kg dry
Launch date (UTC)
2020-08-07 (5 years ago)
Launch vehicle
FALCON 9
Launch site
Air Force Eastern Test Range (AFETR)
Object type
Payload
Rocket body
Debris
Shape & HBR
Box + 1 Pan, 8.86 m
Radar Cross Section
13.562 m², Large (>1 m²)

Expand to show TLE details & history

TLE from 13 hours ago
0 STARLINK-1577
1 46063U 20055AN  25182.68418655  .00000056  00000-0  22663-4 0  9996
2 46063  53.0531 163.4252 0001329  89.1885 270.9256 15.06397584271194
Epoch: 2025-07-01T16:25Z
TLE epoch observation values (Epoch: 2025-07-01T16:25:13.717Z)
Latitude
-0.00006°
Longitude
-2.85811°
Altitude
548.083 km
Speed
7.589 km/s
True Right ascension
10h 53m 42s
True Declination
0° 00' 00"
Sunlit
Object was in daylight at epoch
Visualization orbit readout
Latitude
41.99897°
Longitude
37.04646°
Altitude
550.47 km
Speed
7.592 km/s
Apparent Right ascension
09h 31m 25s
Apparent Declination
6° 52' 07"
Sunlit
Object is in daylight
Visualization observer readout
Local Sidereal Time
17:06:06
Azimuth
290.915° WNW
Elevation
-13.237°
Doppler factor
1
Orbital elements
Apogee altitude
548.41 km
Perigee altitude
546.569 km
Semi-major axis
6,925.627 km
Eccentricity
0.00013
Inclination
53.0531°
RAAN
163.4252°
Arg. of periapsis
89.1885°
True anomaly
Unknown
Mean anomaly
270.9256°
Eccentric anomaly
Unknown
Mean motion
3.76578 °/min
Orbital period
95.6 mins
BSTAR
0.000022663
Loading maneuver chart data...
Loading SW <> Apogee altitude chart data...
Loading historical data...
Loading historical data...
Loading historical data...
Loading historical data...
Loading historical data...
Loading historical data...
Loading historical data...

STARLINK-1577 Visibility forecast

Observer location: undefined°, undefined°

Span
Click to sort rows by Start time (UTC) header in descending order
Start Az.
Max El. time (UTC)
Max El. Az.
Max El.
End time (UTC)
End Az.
5 mins2025-07-02 07:13:32.550Z339.671° N2025-07-02 07:15:32.550Z22.526° NE26.192°2025-07-02 07:18:32.550Z83.471° E
6 mins2025-07-02 08:52:32.550Z294.131° NW2025-07-02 08:55:32.550Z217.235° SW36.342°2025-07-02 08:58:32.550Z154.865° SSE
5 mins2025-07-03 00:26:32.550Z173.776° S2025-07-03 00:28:32.550Z122.429° SE27.216°2025-07-03 00:31:32.550Z70.937° E
5 mins2025-07-03 02:05:32.550Z271.881° WNW2025-07-03 02:07:32.550Z322.454° NNW32.12°2025-07-03 02:10:32.550Z31.794° NE
|